Weather History for Meeker, CO

Change the Weather History Date:

Monday, January 9, 2012

  Actual Average Record
Temperature  
Mean Temperature 23 °F 20 °F  
Max Temperature 41 °F 33 °F 44 °F (2005)
Min Temperature 4 °F 7 °F -11 °F (2011)
Degree Days  
Heating Degree Days 42 45  
Month to date heating degree days 349 408  
Since 1 July heating degree days 3481 3697  
Cooling Degree Days 0 0  
Month to date cooling degree days 0  
Year to date cooling degree days 0  
Moisture  
Dew Point 9 °F    
Average Humidity 65    
Maximum Humidity 92    
Minimum Humidity 37    
Precipitation  
Precipitation 0.00 in 0.03 in 0.21 in (2008)
Month to date precipitation T 0.31  
Year to date precipitation T 0.31  
Sea Level Pressure  
Sea Level Pressure 30.49 in    
Wind  
Wind Speed 2 mph (SW)    
Max Wind Speed 12 mph    
Max Gust Speed 13 mph    
Visibility 10 miles    
Events      
T = Trace of Precipitation, MM = Missing Value Source: NWS Daily Summary

Daily Weather History Graph

Daily Weather History Graph

Search for Another Location

Airport:

Trip Planner

Search our weather history database for the weather conditions in past years. The results will help you decide how hot, cold, wet, or windy it might be!

Date:

Astronomy

Jan. 09, 2012 Rise Set
Actual Time 7:33 AM MST 5:03 PM MST
Civil Twilight 7:03 AM MST 5:34 PM MST
Nautical Twilight 6:29 AM MST 6:07 PM MST
Astronomical Twilight 5:56 AM MST 6:40 PM MST
Moon 5:53 PM MST (1/9) 7:35 AM MST (1/9)
Length of Visible Light 10h 30m
Length of Day
9h 30m
Full, 100% of the Moon is Illuminated
Jan 9
Full
Jan 16
Last Quarter
Jan 23
New
Jan 30
First Quarter
Feb 7
Full

Hourly Weather History & Observations

Time (MST) Temp. Windchill Dew Point Humidity Pressure Visibility Wind Dir Wind Speed Gust Speed Precip Events Conditions
12:53 AM 10.9 °F - 6.1 °F 81% 30.49 in 10.0 mi Calm Calm - N/A   Clear
1:53 AM 8.1 °F -0.5 °F 3.9 °F 83% 30.52 in 10.0 mi ENE 4.6 mph - N/A   Clear
2:53 AM 8.1 °F - 5.0 °F 87% 30.52 in 10.0 mi Calm Calm - N/A   Clear
3:53 AM 8.1 °F 1.4 °F 5.0 °F 87% 30.51 in 10.0 mi Variable 3.5 mph - N/A   Clear
4:53 AM 8.1 °F - 3.9 °F 83% 30.52 in 10.0 mi Calm Calm - N/A   Clear
5:53 AM 6.1 °F - 1.9 °F 83% 30.60 in 10.0 mi Calm Calm - N/A   Clear
6:53 AM 6.1 °F - 1.9 °F 83% 30.61 in 10.0 mi Calm Calm - N/A   Clear
7:53 AM 8.1 °F 1.4 °F 3.9 °F 83% 30.61 in 10.0 mi North 3.5 mph - N/A   Clear
9:53 AM 19.9 °F - 10.9 °F 68% 30.56 in 10.0 mi Calm Calm - N/A   Clear
10:53 AM 26.1 °F 20.5 °F 12.9 °F 58% 30.55 in 10.0 mi WSW 4.6 mph - N/A   Clear
11:53 AM 30.9 °F 26.2 °F 14.0 °F 50% 30.47 in 10.0 mi WSW 4.6 mph - N/A   Clear
1:53 PM 39.0 °F 35.7 °F 16.0 °F 39% 30.39 in 10.0 mi South 4.6 mph - N/A   Clear
2:53 PM 39.9 °F 35.1 °F 17.1 °F 40% 30.38 in 10.0 mi SSW 6.9 mph - N/A   Clear
3:53 PM 39.0 °F 33.4 °F 17.1 °F 41% 30.37 in 10.0 mi SW 8.1 mph - N/A   Clear
4:53 PM 32.0 °F 27.5 °F 16.0 °F 52% 30.41 in 10.0 mi WSW 4.6 mph - N/A   Clear
5:53 PM 24.1 °F - 14.0 °F 65% 30.47 in 10.0 mi Calm Calm - N/A   Clear
6:53 PM 18.0 °F 11.1 °F 12.0 °F 78% 30.51 in 10.0 mi NE 4.6 mph - N/A   Clear
7:53 PM 16.0 °F - 12.0 °F 84% 30.52 in 10.0 mi Calm Calm - N/A   Clear
8:53 PM 16.0 °F - 10.9 °F 81% 30.48 in 10.0 mi Calm Calm - N/A   Clear
9:53 PM 12.9 °F - 9.0 °F 84% 30.47 in 10.0 mi Calm Calm - N/A   Clear
10:53 PM 12.0 °F - 10.0 °F 92% 30.44 in 10.0 mi Calm Calm - N/A   Clear
11:53 PM 9.0 °F - 5.0 °F 84% 30.44 in 10.0 mi Calm Calm - N/A   Clear